Location: Newark
(36.4904°N, 5.5399°E)
Time: 21:49:41
(UTC+00:00)

OTV 5 (USA 277) - Visible Passes

Search period start: 22 October 2019 00:00
Search period end: 01 November 2019 00:00
Orbit: 310 x 324 km, 54.5° (Epoch: 17 October)

Date Brightness Start Highest point End Pass type
(mag) Time Alt. Az. Time Alt. Az. Time Alt. Az.
22 Oct ? 04:03:45 27° ESE 04:03:45 27° ESE 04:05:10 10° SE visible
23 Oct ? 04:18:45 16° S 04:18:45 16° S 04:19:29 10° SSE visible
26 Oct ? 18:07:40 10° SSW 18:09:16 25° SSE 18:09:16 25° SSE visible
27 Oct ? 18:21:55 10° SW 18:24:02 48° WSW 18:24:02 48° WSW visible
28 Oct ? 18:37:01 10° W 18:38:40 21° WNW 18:38:40 21° WNW visible
29 Oct ? 17:16:46 10° SSW 17:19:26 61° SE 17:22:08 10° NE visible
30 Oct ? 17:31:27 10° WSW 17:34:00 36° NW 17:36:34 10° NNE visible
31 Oct ? 17:47:02 10° WNW 17:48:43 15° NW 17:50:24 10° N visible
